,,Stat6,,Stat2,,Stat8,,Stat9,,Stat10,,Wind1,,Wind1,
time,status,PA1M_AVG,status,PR1M_SUM,status,RH1M_AVG,status,SR1M_AVG,status,TA1M_AVG,status,W1dAve1m,status,W1sAve1m,
2006-03-13, 00:00:00,VALID,918.166,VALID,0,VALID,98.4069,VALID,-0.101885,VALID,19.3754,VALID,255,VALID,0.258903,
2006-03-13, 00:01:00,VALID,918.149,VALID,0,VALID,98.6409,VALID,-0.101885,VALID,19.3791,VALID,255,VALID,0.147347,
2006-03-13, 00:02:00,VALID,918.143,VALID,0,VALID,98.7922,VALID,-0.0849042,VALID,19.3632,VALID,255,VALID,0.0710227,
2006-03-13, 00:03:00,VALID,918.125,VALID,0,VALID,98.9423,VALID,-0.0849042,VALID,19.3699,VALID,255,VALID,0.262195,
2006-03-13, 00:04:00,VALID,918.11,VALID,0,VALID,98.9385,VALID,-0.0679233,VALID,19.357,VALID,262,VALID,0.24673,
2006-03-13, 00:05:00,VALID,918.111,VALID,0,VALID,98.9296,VALID,-0.0679233,VALID,19.3632,VALID,263,VALID,0.078311,
2006-03-13, 00:06:00,VALID,918.101,VALID,0,VALID,98.7147,VALID,-0.0849042,VALID,19.3329,VALID,309,VALID,0.428711,
2006-03-13, 00:07:00,VALID,918.105,VALID,0,VALID,98.5023,VALID,-0.0679233,VALID,19.3366,VALID,340,VALID,0.219658,
2006-03-13, 00:08:00,VALID,918.103,VALID,0,VALID,98.4896,VALID,-0.101885,VALID,19.3567,VALID,340,VALID,0.12779,
2006-03-13, 00:09:00,VALID,918.11,VALID,0,VALID,98.5722,VALID,-0.0849042,VALID,19.3729,VALID,340,VALID,0,
2006-03-13, 00:10:00,VALID,918.106,VALID,0,VALID,98.5227,VALID,-0.0849042,VALID,19.3925,VALID,340,VALID,0,
2006-03-13, 00:11:00,VALID,918.106,VALID,0,VALID,98.5112,VALID,-0.101885,VALID,19.3952,VALID,340,VALID,0.152435,
2006-03-13, 00:12:00,VALID,918.117,VALID,0,VALID,98.7719,VALID,-0.0849042,VALID,19.4176,VALID,305,VALID,0.456854,
2006-03-13, 00:13:00,VALID,918.104,VALID,0,VALID,98.969,VALID,-0.0849042,VALID,19.4345,VALID,301,VALID,0.0714558,
2006-03-13, 00:14:00,VALID,918.089,VALID,0,VALID,99.0783,VALID,-0.0849042,VALID,19.4112,VALID,300,VALID,0.314931,
2006-03-13, 00:15:00,VALID,918.091,VALID,0,VALID,99.2144,VALID,-0.0849042,VALID,19.4047,VALID,300,VALID,0.479102,
2006-03-13, 00:16:00,VALID,918.072,VALID,0,VALID,99.3454,VALID,-0.0849042,VALID,19.3786,VALID,300,VALID,0.482812,
2006-03-13, 00:17:00,VALID,918.067,VALID,0,VALID,99.4433,VALID,-0.0509425,VALID,19.3692,VALID,240,VALID,0.508765,
2006-03-13, 00:18:00,VALID,918.062,VALID,0,VALID,99.4929,VALID,-0.101885,VALID,19.3565,VALID,216,VALID,0.34375,
2006-03-13, 00:19:00,VALID,918.053,VALID,0,VALID,99.47,VALID,-0.0849042,VALID,19.3339,VALID,216,VALID,0.176525,
2006-03-13, 00:20:00,VALID,918.044,VALID,0,VALID,99.4128,VALID,-0.101885,VALID,19.3339,VALID,216,VALID,0.00479403,
2006-03-13, 00:21:00,VALID,918.062,VALID,0,VALID,99.2119,VALID,-0.101885,VALID,19.3209,VALID,245,VALID,0.488477,
2006-03-13, 00:22:00,VALID,918.068,VALID,0,VALID,99.1292,VALID,-0.118866,VALID,19.3373,VALID,229,VALID,0.0273438,
2006-03-13, 00:23:00,VALID,918.07,VALID,0,VALID,99.0707,VALID,-0.0849042,VALID,19.3269,VALID,229,VALID,0,
2006-03-13, 00:24:00,VALID,918.07,VALID,0,VALID,99.0389,VALID,-0.0509425,VALID,19.3366,VALID,239,VALID,0.124414,
2006-03-13, 00:25:00,VALID,918.082,VALID,0,VALID,99.0936,VALID,-0.0679233,VALID,19.3532,VALID,247,VALID,0.207775,
2006-03-13, 00:26:00,VALID,918.081,VALID,0,VALID,99.0949,VALID,-0.0679233,VALID,19.346,VALID,355,VALID,0.74564,
2006-03-13, 00:27:00,VALID,918.081,VALID,0,VALID,99.0198,VALID,0.0169808,VALID,19.3595,VALID,18,VALID,0.806021,
2006-03-13, 00:28:00,VALID,918.068,VALID,0,VALID,99.0211,VALID,-0.0509425,VALID,19.353,VALID,20,VALID,0.444041,
2006-03-13, 00:29:00,VALID,918.079,VALID,0,VALID,99.0287,VALID,-0.0339617,VALID,19.3562,VALID,20,VALID,0.0615234,
2006-03-13, 00:30:00,VALID,918.09,VALID,0,VALID,99.0186,VALID,-0.0509425,VALID,19.3396,VALID,20,VALID,0.0598958,
2006-03-13, 00:31:00,VALID,918.078,VALID,0,VALID,99.0872,VALID,-0.0509425,VALID,19.3366,VALID,20,VALID,0.0977515,
2006-03-13, 00:32:00,VALID,918.082,VALID,0,VALID,99.2233,VALID,-0.0679233,VALID,19.3331,VALID,20,VALID,0.0180432,
2006-03-13, 00:33:00,VALID,918.084,VALID,0,VALID,99.2653,VALID,-0.0679233,VALID,19.3239,VALID,20,VALID,0.269345,
2006-03-13, 00:34:00,VALID,918.078,VALID,0,VALID,99.3009,VALID,-0.0679233,VALID,19.3207,VALID,20,VALID,0.459847,
2006-03-13, 00:35:00,VALID,918.087,VALID,0,VALID,99.3187,VALID,0,VALID,19.3008,VALID,20,VALID,0.264898,
2006-03-13, 00:36:00,VALID,918.083,VALID,0,VALID,99.339,VALID,-0.0509425,VALID,19.2851,VALID,20,VALID,0.0857558,
2006-03-13, 00:37:00,VALID,918.074,VALID,0,VALID,99.4357,VALID,-0.0679233,VALID,19.2688,VALID,20,VALID,0.0757631,
2006-03-13, 00:38:00,VALID,918.062,VALID,0,VALID,99.531,VALID,-0.0509425,VALID,19.2586,VALID,20,VALID,0.0359375,
2006-03-13, 00:39:00,VALID,918.066,VALID,0,VALID,99.5603,VALID,-0.0679233,VALID,19.2526,VALID,20,VALID,0.0762649,
2006-03-13, 00:40:00,VALID,918.051,VALID,0,VALID,99.5437,VALID,-0.0509425,VALID,19.2663,VALID,20,VALID,0,
2006-03-13, 00:41:00,VALID,918.034,VALID,0,VALID,99.559,VALID,-0.0679233,VALID,19.2496,VALID,20,VALID,0,
2006-03-13, 00:42:00,VALID,918.041,VALID,0,VALID,99.5616,VALID,-0.0679233,VALID,19.2531,VALID,20,VALID,0.154948,
2006-03-13, 00:43:00,VALID,918.032,VALID,0,VALID,99.5883,VALID,-0.0849042,VALID,19.2434,VALID,20,VALID,0,
2006-03-13, 00:44:00,VALID,918.023,VALID,0,VALID,99.5921,VALID,-0.0169808,VALID,19.2364,VALID,20,VALID,0,
2006-03-13, 00:45:00,VALID,918.044,VALID,0,VALID,99.5031,VALID,-0.0849042,VALID,19.224,VALID,20,VALID,0,
2006-03-13, 00:46:00,VALID,918.04,VALID,0,VALID,99.4166,VALID,-0.0679233,VALID,19.2076,VALID,20,VALID,0.168713,
2006-03-13, 00:47:00,VALID,918.041,VALID,0,VALID,99.4153,VALID,-0.0849042,VALID,19.1882,VALID,90,VALID,0.437137,
2006-03-13, 00:48:00,VALID,918.029,VALID,0,VALID,99.5094,VALID,-0.101885,VALID,19.1688,VALID,147,VALID,0.188281,
2006-03-13, 00:49:00,VALID,918.028,VALID,0,VALID,99.6099,VALID,-0.0849042,VALID,19.1721,VALID,147,VALID,0.000372024,
2006-03-13, 00:50:00,VALID,918.026,VALID,0,VALID,99.5781,VALID,-0.0849042,VALID,19.1751,VALID,52,VALID,0.375178,
2006-03-13, 00:51:00,VALID,918.019,VALID,0,VALID,99.5081,VALID,-0.0679233,VALID,19.1877,VALID,35,VALID,0.147321,
2006-03-13, 00:52:00,VALID,918.012,VALID,0,VALID,99.3047,VALID,-0.0679233,VALID,19.1977,VALID,55,VALID,0.107851,
2006-03-13, 00:53:00,VALID,918.013,VALID,0,VALID,99.1597,VALID,-0.0339617,VALID,19.22,VALID,54,VALID,0,
2006-03-13, 00:54:00,VALID,918.015,VALID,0,VALID,99.0148,VALID,0.0679233,VALID,19.2288,VALID,54,VALID,0,
2006-03-13, 00:55:00,VALID,917.995,VALID,0,VALID,98.8978,VALID,0.0339617,VALID,19.2509,VALID,54,VALID,0,
2006-03-13, 00:56:00,VALID,917.989,VALID,0,VALID,98.7375,VALID,0.0679233,VALID,19.2807,VALID,54,VALID,0.152716,
2006-03-13, 00:57:00,VALID,917.976,VALID,0,VALID,98.5951,VALID,0,VALID,19.3073,VALID,27,VALID,0.534157,
2006-03-13, 00:58:00,VALID,917.985,VALID,0,VALID,98.4921,VALID,0.0339617,VALID,19.316,VALID,359,VALID,0.711538,
2006-03-13, 00:59:00,VALID,917.991,VALID,0,VALID,98.3408,VALID,0.0509425,VALID,19.3515,VALID,4,VALID,0.710379,
2006-03-13, 01:00:00,VALID,917.989,VALID,0,VALID,98.159,VALID,0,VALID,19.3615,VALID,1,VALID,0.998811,
2006-03-13, 01:01:00,VALID,917.979,VALID,0,VALID,98.0738,VALID,0,VALID,19.3876,VALID,345,VALID,0.859375,
2006-03-13, 01:02:00,VALID,917.987,VALID,0,VALID,97.9453,VALID,0.0339617,VALID,19.4164,VALID,349,VALID,0.507241,
2006-03-13, 01:03:00,VALID,917.979,VALID,0,VALID,97.8551,VALID,0.0169808,VALID,19.433,VALID,350,VALID,0.520167,
2006-03-13, 01:04:00,VALID,917.961,VALID,0,VALID,97.8144,VALID,0.0169808,VALID,19.4425,VALID,356,VALID,0.709032,
2006-03-13, 01:05:00,VALID,917.953,VALID,0,VALID,97.8347,VALID,0.0849042,VALID,19.443,VALID,357,VALID,0.615141,
2006-03-13, 01:06:00,VALID,917.94,VALID,0,VALID,97.8945,VALID,0.0339617,VALID,19.4224,VALID,11,VALID,0.547743,
2006-03-13, 01:07:00,VALID,917.928,VALID,0,VALID,97.9415,VALID,0,VALID,19.4293,VALID,11,VALID,0.0866642,
2006-03-13, 01:08:00,VALID,917.916,VALID,0,VALID,98.0229,VALID,0,VALID,19.4296,VALID,11,VALID,0.282965,
2006-03-13, 01:09:00,VALID,917.909,VALID,0,VALID,98.089,VALID,-0.101885,VALID,19.4278,VALID,11,VALID,0.25362,
2006-03-13, 01:10:00,VALID,917.882,VALID,0,VALID,98.117,VALID,-0.0509425,VALID,19.4241,VALID,11,VALID,0.364901,
2006-03-13, 01:11:00,VALID,917.865,VALID,0,VALID,98.2124,VALID,-0.101885,VALID,19.4211,VALID,11,VALID,0.47202,
2006-03-13, 01:12:00,VALID,917.849,VALID,0,VALID,98.3332,VALID,-0.0679233,VALID,19.4174,VALID,7,VALID,0.437855,
2006-03-13, 01:13:00,VALID,917.848,VALID,0,VALID,98.4311,VALID,-0.0849042,VALID,19.434,VALID,7,VALID,0.431445,
2006-03-13, 01:14:00,VALID,917.838,VALID,0,VALID,98.5252,VALID,-0.0849042,VALID,19.4308,VALID,7,VALID,0.347942,
2006-03-13, 01:15:00,VALID,917.842,VALID,0,VALID,98.5672,VALID,-0.118866,VALID,19.4539,VALID,7,VALID,0,
2006-03-13, 01:16:00,VALID,917.854,VALID,0,VALID,98.5672,VALID,-0.0679233,VALID,19.437,VALID,7,VALID,0,
2006-03-13, 01:17:00,VALID,917.844,VALID,0,VALID,98.6142,VALID,-0.101885,VALID,19.4569,VALID,7,VALID,0,
2006-03-13, 01:18:00,VALID,917.842,VALID,0,VALID,98.6269,VALID,-0.0509425,VALID,19.4633,VALID,7,VALID,0,
2006-03-13, 01:19:00,VALID,917.851,VALID,0,VALID,98.604,VALID,-0.101885,VALID,19.4529,VALID,7,VALID,0,
2006-03-13, 01:20:00,VALID,917.85,VALID,0,VALID,98.6524,VALID,-0.0679233,VALID,19.4435,VALID,7,VALID,0,
2006-03-13, 01:21:00,VALID,917.862,VALID,0,VALID,98.6676,VALID,-0.0509425,VALID,19.4241,VALID,7,VALID,0,
2006-03-13, 01:22:00,VALID,917.872,VALID,0,VALID,98.7236,VALID,-0.0679233,VALID,19.4303,VALID,7,VALID,0.0046503,
2006-03-13, 01:23:00,VALID,917.872,VALID,0,VALID,98.7579,VALID,-0.0339617,VALID,19.4211,VALID,7,VALID,0.0652344,
2006-03-13, 01:24:00,VALID,917.842,VALID,0,VALID,98.8049,VALID,-0.0849042,VALID,19.4084,VALID,7,VALID,0.0069987,
2006-03-13, 01:25:00,VALID,917.808,VALID,0,VALID,98.81,VALID,-0.0849042,VALID,19.3987,VALID,7,VALID,0.00240385,
2006-03-13, 01:26:00,VALID,917.783,VALID,0,VALID,98.8901,VALID,-0.101885,VALID,19.4082,VALID,7,VALID,0.0093006,
2006-03-13, 01:27:00,VALID,917.761,VALID,0,VALID,98.9881,VALID,-0.118866,VALID,19.4211,VALID,7,VALID,0,
2006-03-13, 01:28:00,VALID,917.742,VALID,0,VALID,98.9575,VALID,-0.0849042,VALID,19.444,VALID,7,VALID,0.0911458,
2006-03-13, 01:29:00,VALID,917.714,VALID,0,VALID,98.8367,VALID,-0.0679233,VALID,19.4238,VALID,7,VALID,0.572461,
2006-03-13, 01:30:00,VALID,917.68,VALID,0,VALID,98.8291,VALID,-0.0509425,VALID,19.4313,VALID,6,VALID,0.755526,
2006-03-13, 01:31:00,VALID,917.646,VALID,0,VALID,98.7287,VALID,-0.101885,VALID,19.4183,VALID,7,VALID,1.12009,
2006-03-13, 01:32:00,VALID,917.614,VALID,0,VALID,98.6511,VALID,-0.0849042,VALID,19.4119,VALID,13,VALID,1.14408,
2006-03-13, 01:33:00,VALID,917.572,VALID,0,VALID,98.5646,VALID,-0.0849042,VALID,19.4119,VALID,5,VALID,0.972826,
2006-03-13, 01:34:00,VALID,917.54,VALID,0,VALID,98.5315,VALID,-0.0849042,VALID,19.4079,VALID,9,VALID,0.737571,
2006-03-13, 01:35:00,VALID,917.505,VALID,0,VALID,98.4425,VALID,-0.0849042,VALID,19.3987,VALID,348,VALID,0.776344,
2006-03-13, 01:36:00,VALID,917.498,VALID,0,VALID,98.4553,VALID,-0.0849042,VALID,19.4087,VALID,338,VALID,0.632457,
2006-03-13, 01:37:00,VALID,917.473,VALID,0,VALID,98.4184,VALID,-0.0679233,VALID,19.4017,VALID,336,VALID,0.355664,
2006-03-13, 01:38:00,VALID,917.451,VALID,0,VALID,98.4196,VALID,-0.0679233,VALID,19.4208,VALID,336,VALID,0.114099,
2006-03-13, 01:39:00,VALID,917.433,VALID,0,VALID,98.3904,VALID,-0.0849042,VALID,19.4472,VALID,341,VALID,0.222752,
2006-03-13, 01:40:00,VALID,917.418,VALID,0,VALID,98.3306,VALID,-0.0509425,VALID,19.4467,VALID,342,VALID,0.131904,
2006-03-13, 01:41:00,VALID,917.399,VALID,0,VALID,98.3268,VALID,-0.101885,VALID,19.4636,VALID,343,VALID,0,
2006-03-13, 01:42:00,VALID,917.39,VALID,0,VALID,98.2531,VALID,-0.118866,VALID,19.4668,VALID,337,VALID,0.0343387,
2006-03-13, 01:43:00,VALID,917.374,VALID,0,VALID,98.2315,VALID,-0.0849042,VALID,19.4631,VALID,303,VALID,0.0447266,
2006-03-13, 01:44:00,VALID,917.375,VALID,0,VALID,98.1857,VALID,-0.0849042,VALID,19.4661,VALID,303,VALID,0.128534,
2006-03-13, 01:45:00,VALID,917.361,VALID,0,VALID,98.159,VALID,-0.0339617,VALID,19.4596,VALID,303,VALID,0.00273437,
2006-03-13, 01:46:00,VALID,917.358,VALID,0,VALID,98.2467,VALID,-0.101885,VALID,19.4696,VALID,303,VALID,0,
2006-03-13, 01:47:00,VALID,917.346,VALID,0,VALID,98.3243,VALID,-0.0679233,VALID,19.4696,VALID,303,VALID,0,
2006-03-13, 01:48:00,VALID,917.339,VALID,0,VALID,98.3065,VALID,-0.0679233,VALID,19.4594,VALID,303,VALID,0.0602134,
2006-03-13, 01:49:00,VALID,917.334,VALID,0,VALID,98.2887,VALID,-0.0849042,VALID,19.4797,VALID,304,VALID,0.284157,
2006-03-13, 01:50:00,VALID,917.317,VALID,0,VALID,98.3128,VALID,-0.0849042,VALID,19.4763,VALID,329,VALID,0.216087,
2006-03-13, 01:51:00,VALID,917.308,VALID,0,VALID,98.3548,VALID,-0.0679233,VALID,19.4765,VALID,335,VALID,0.399306,
2006-03-13, 01:52:00,VALID,917.305,VALID,0,VALID,98.3052,VALID,-0.0679233,VALID,19.4566,VALID,335,VALID,0.480556,
2006-03-13, 01:53:00,VALID,917.29,VALID,0,VALID,98.3853,VALID,-0.101885,VALID,19.4467,VALID,335,VALID,0.236421,
2006-03-13, 01:54:00,VALID,917.28,VALID,0,VALID,98.4603,VALID,-0.0509425,VALID,19.4499,VALID,335,VALID,0.128162,
2006-03-13, 01:55:00,VALID,917.272,VALID,0,VALID,98.4858,VALID,-0.101885,VALID,19.4469,VALID,335,VALID,0,
2006-03-13, 01:56:00,VALID,917.266,VALID,0,VALID,98.5112,VALID,-0.118866,VALID,19.4499,VALID,335,VALID,0,
2006-03-13, 01:57:00,VALID,917.273,VALID,0,VALID,98.5303,VALID,-0.0339617,VALID,19.4698,VALID,335,VALID,0.0398065,
2006-03-13, 01:58:00,VALID,917.254,VALID,0,VALID,98.5099,VALID,-0.0849042,VALID,19.4631,VALID,335,VALID,0,
2006-03-13, 01:59:00,VALID,917.252,VALID,0,VALID,98.4794,VALID,-0.0849042,VALID,19.4596,VALID,335,VALID,0,
2006-03-13, 02:00:00,VALID,917.261,VALID,0,VALID,98.4654,VALID,-0.0679233,VALID,19.4693,VALID,335,VALID,0,
2006-03-13, 02:01:00,VALID,917.246,VALID,0,VALID,98.4591,VALID,-0.0679233,VALID,19.479,VALID,321,VALID,0.269055,
2006-03-13, 02:02:00,VALID,917.245,VALID,0,VALID,98.337,VALID,-0.0679233,VALID,19.4696,VALID,313,VALID,0.489169,
2006-03-13, 02:03:00,VALID,917.221,VALID,0,VALID,98.4057,VALID,-0.0849042,VALID,19.4502,VALID,302,VALID,0.419567,
2006-03-13, 02:04:00,VALID,917.193,VALID,0,VALID,98.4959,VALID,-0.0339617,VALID,19.4504,VALID,302,VALID,0.273074,
2006-03-13, 02:05:00,VALID,917.176,VALID,0,VALID,98.5163,VALID,-0.0849042,VALID,19.4241,VALID,302,VALID,0.0997024,
2006-03-13, 02:06:00,VALID,917.167,VALID,0,VALID,98.6218,VALID,-0.0849042,VALID,19.4303,VALID,302,VALID,0.00109012,
2006-03-13, 02:07:00,VALID,917.143,VALID,0,VALID,98.7261,VALID,-0.0679233,VALID,19.4273,VALID,302,VALID,0,
2006-03-13, 02:08:00,VALID,917.128,VALID,0,VALID,98.8024,VALID,-0.101885,VALID,19.4107,VALID,302,VALID,0.158668,
2006-03-13, 02:09:00,VALID,917.122,VALID,0,VALID,98.7566,VALID,-0.101885,VALID,19.4079,VALID,302,VALID,0.323583,
2006-03-13, 02:10:00,VALID,917.123,VALID,0,VALID,98.796,VALID,-0.0679233,VALID,19.4181,VALID,302,VALID,0.383358,
2006-03-13, 02:11:00,VALID,917.111,VALID,0,VALID,98.735,VALID,-0.0849042,VALID,19.4087,VALID,302,VALID,0.171875,
2006-03-13, 02:12:00,VALID,917.109,VALID,0,VALID,98.7592,VALID,-0.0679233,VALID,19.3948,VALID,302,VALID,0.397892,
2006-03-13, 02:13:00,VALID,917.114,VALID,0,VALID,98.7388,VALID,-0.101885,VALID,19.3754,VALID,302,VALID,0.191679,
2006-03-13, 02:14:00,VALID,917.107,VALID,0,VALID,98.8851,VALID,-0.0849042,VALID,19.3793,VALID,302,VALID,0,
2006-03-13, 02:15:00,VALID,917.103,VALID,0,VALID,99.0135,VALID,-0.0169808,VALID,19.389,VALID,302,VALID,0,
2006-03-13, 02:16:00,VALID,917.086,VALID,0,VALID,99.0186,VALID,-0.0849042,VALID,19.4019,VALID,302,VALID,0,
2006-03-13, 02:17:00,VALID,917.074,VALID,0,VALID,99.1559,VALID,-0.0849042,VALID,19.401,VALID,302,VALID,0.0822173,
2006-03-13, 02:18:00,VALID,917.057,VALID,0,VALID,99.2169,VALID,-0.0849042,VALID,19.4146,VALID,302,VALID,0.225654,
2006-03-13, 02:19:00,VALID,917.047,VALID,0,VALID,99.2347,VALID,-0.0679233,VALID,19.392,VALID,302,VALID,0.00745739,
2006-03-13, 02:20:00,VALID,917.027,VALID,0,VALID,99.3021,VALID,-0.101885,VALID,19.392,VALID,302,VALID,0,
2006-03-13, 02:21:00,VALID,917.02,VALID,0,VALID,99.2983,VALID,-0.0849042,VALID,19.3957,VALID,302,VALID,0.149368,
2006-03-13, 02:22:00,VALID,917.017,VALID,0,VALID,99.3454,VALID,-0.0679233,VALID,19.3957,VALID,318,VALID,0.239195,
2006-03-13, 02:23:00,VALID,917.005,VALID,0,VALID,99.367,VALID,-0.0679233,VALID,19.3784,VALID,354,VALID,0.33194,
2006-03-13, 02:24:00,VALID,917.008,VALID,0,VALID,99.3784,VALID,0,VALID,19.3771,VALID,342,VALID,0.456287,
2006-03-13, 02:25:00,VALID,917.007,VALID,0,VALID,99.4535,VALID,0,VALID,19.3873,VALID,348,VALID,0.249479,
2006-03-13, 02:26:00,VALID,917.001,VALID,0,VALID,99.4636,VALID,0.0169808,VALID,19.3804,VALID,314,VALID,0.30888,
2006-03-13, 02:27:00,VALID,916.992,VALID,0,VALID,99.4229,VALID,0.0509425,VALID,19.3741,VALID,242,VALID,0.521723,
2006-03-13, 02:28:00,VALID,916.984,VALID,0,VALID,99.4128,VALID,0.0339617,VALID,19.3649,VALID,241,VALID,0.366616,
2006-03-13, 02:29:00,VALID,916.973,VALID,0,VALID,99.4967,VALID,0.0339617,VALID,19.3317,VALID,241,VALID,0.14335,
2006-03-13, 02:30:00,VALID,916.952,VALID,0,VALID,99.5704,VALID,-0.0169808,VALID,19.319,VALID,241,VALID,0.113715,
2006-03-13, 02:31:00,VALID,916.924,VALID,0,VALID,99.6417,VALID,0,VALID,19.3091,VALID,241,VALID,0.0252131,
2006-03-13, 02:32:00,VALID,916.919,VALID,0,VALID,99.7459,VALID,0,VALID,19.3252,VALID,246,VALID,0.224019,
2006-03-13, 02:33:00,VALID,916.902,VALID,0,VALID,99.8159,VALID,0,VALID,19.3543,VALID,334,VALID,0.524009,
2006-03-13, 02:34:00,VALID,916.885,VALID,0,VALID,99.8337,VALID,0,VALID,19.3799,VALID,343,VALID,0.415625,
2006-03-13, 02:35:00,VALID,916.876,VALID,0,VALID,99.7866,VALID,0,VALID,19.4062,VALID,353,VALID,0.4373,
2006-03-13, 02:36:00,VALID,916.86,VALID,0,VALID,99.6684,VALID,0.0169808,VALID,19.4157,VALID,9,VALID,0.522135,
2006-03-13, 02:37:00,VALID,916.859,VALID,0,VALID,99.5603,VALID,0,VALID,19.4224,VALID,13,VALID,0.340116,
2006-03-13, 02:38:00,VALID,916.852,VALID,0,VALID,99.4738,VALID,-0.0339617,VALID,19.4263,VALID,13,VALID,0.0866997,
2006-03-13, 02:39:00,VALID,916.858,VALID,0,VALID,99.4496,VALID,-0.118866,VALID,19.4305,VALID,13,VALID,0.00952744,
2006-03-13, 02:40:00,VALID,916.864,VALID,0,VALID,99.4001,VALID,-0.101885,VALID,19.4241,VALID,13,VALID,0.03125,
2006-03-13, 02:41:00,VALID,916.856,VALID,0,VALID,99.2958,VALID,-0.101885,VALID,19.4308,VALID,10,VALID,0.134487,
2006-03-13, 02:42:00,VALID,916.846,VALID,0,VALID,99.2615,VALID,-0.101885,VALID,19.4109,VALID,7,VALID,0.0139101,
2006-03-13, 02:43:00,VALID,916.82,VALID,0,VALID,99.3505,VALID,-0.118866,VALID,19.4208,VALID,356,VALID,0.445139,
2006-03-13, 02:44:00,VALID,916.818,VALID,0,VALID,99.4636,VALID,-0.101885,VALID,19.4527,VALID,342,VALID,0.584121,
2006-03-13, 02:45:00,VALID,916.786,VALID,0,VALID,99.1483,VALID,-0.118866,VALID,19.4527,VALID,357,VALID,0.205433,
2006-03-13, 02:46:00,VALID,916.774,VALID,0,VALID,99.0377,VALID,-0.0849042,VALID,19.4397,VALID,358,VALID,0.0561756,
2006-03-13, 02:47:00,VALID,916.753,VALID,0,VALID,99.0389,VALID,-0.118866,VALID,19.4534,VALID,358,VALID,0.00446429,
2006-03-13, 02:48:00,VALID,916.73,VALID,0,VALID,99.0758,VALID,-0.101885,VALID,19.4633,VALID,358,VALID,0,
2006-03-13, 02:49:00,VALID,916.722,VALID,0,VALID,99.1534,VALID,-0.101885,VALID,19.479,VALID,358,VALID,0,
2006-03-13, 02:50:00,VALID,916.701,VALID,0,VALID,99.0898,VALID,-0.0679233,VALID,19.4845,VALID,358,VALID,0.0138494,
2006-03-13, 02:51:00,VALID,916.705,VALID,0,VALID,98.9525,VALID,-0.101885,VALID,19.4857,VALID,352,VALID,0.012718,
2006-03-13, 02:52:00,VALID,916.705,VALID,0,VALID,99.0377,VALID,-0.0679233,VALID,19.5113,VALID,313,VALID,0.245312,
2006-03-13, 02:53:00,VALID,916.71,VALID,0,VALID,99.1648,VALID,-0.0509425,VALID,19.5237,VALID,312,VALID,0,
2006-03-13, 02:54:00,VALID,916.706,VALID,0,VALID,99.1139,VALID,-0.0679233,VALID,19.5406,VALID,312,VALID,0,
2006-03-13, 02:55:00,VALID,916.7,VALID,0,VALID,99.1292,VALID,-0.0679233,VALID,19.527,VALID,312,VALID,0,
2006-03-13, 02:56:00,VALID,916.698,VALID,0,VALID,99.1508,VALID,-0.0509425,VALID,19.5401,VALID,312,VALID,0,
2006-03-13, 02:57:00,VALID,916.707,VALID,0,VALID,99.1101,VALID,-0.0679233,VALID,19.5466,VALID,312,VALID,0,
2006-03-13, 02:58:00,VALID,916.712,VALID,0,VALID,99.0364,VALID,-0.0849042,VALID,19.5334,VALID,312,VALID,0.0279018,
2006-03-13, 02:59:00,VALID,916.722,VALID,0,VALID,98.997,VALID,-0.0849042,VALID,19.5536,VALID,252,VALID,0.272347,
2006-03-13, 03:00:00,VALID,916.719,VALID,0,VALID,98.9423,VALID,-0.0849042,VALID,19.5272,VALID,191,VALID,0.361861,
2006-03-13, 03:01:00,VALID,916.712,VALID,0,VALID,98.9334,VALID,-0.0339617,VALID,19.5108,VALID,185,VALID,0.480378,
2006-03-13, 03:02:00,VALID,916.705,VALID,0,VALID,98.983,VALID,-0.0679233,VALID,19.4947,VALID,227,VALID,0.848133,
2006-03-13, 03:03:00,VALID,916.697,VALID,0,VALID,99.1089,VALID,-0.0849042,VALID,19.4723,VALID,232,VALID,0.589026,
2006-03-13, 03:04:00,VALID,916.683,VALID,0,VALID,99.2055,VALID,-0.0509425,VALID,19.4628,VALID,213,VALID,0.806504,
2006-03-13, 03:05:00,VALID,916.67,VALID,0,VALID,99.2589,VALID,-0.0679233,VALID,19.4432,VALID,233,VALID,0.701853,
2006-03-13, 03:06:00,VALID,916.646,VALID,0,VALID,99.306,VALID,-0.0849042,VALID,19.4338,VALID,236,VALID,0.485119,
2006-03-13, 03:07:00,VALID,916.634,VALID,0,VALID,99.3861,VALID,-0.101885,VALID,19.437,VALID,251,VALID,0.575149,
2006-03-13, 03:08:00,VALID,916.624,VALID,0,VALID,99.4293,VALID,-0.0679233,VALID,19.4231,VALID,228,VALID,0.581759,
2006-03-13, 03:09:00,VALID,916.592,VALID,0,VALID,99.4827,VALID,0.0169808,VALID,19.435,VALID,207,VALID,0.0386719,
2006-03-13, 03:10:00,VALID,916.566,VALID,0,VALID,99.5081,VALID,0.0339617,VALID,19.4514,VALID,225,VALID,0.351367,
2006-03-13, 03:11:00,VALID,916.535,VALID,0,VALID,99.5069,VALID,0.0169808,VALID,19.4641,VALID,225,VALID,0.151228,
2006-03-13, 03:12:00,VALID,916.528,VALID,0,VALID,99.5374,VALID,0.0339617,VALID,19.4803,VALID,240,VALID,0.199128,
2006-03-13, 03:13:00,VALID,916.493,VALID,0,VALID,99.5984,VALID,0,VALID,19.4997,VALID,336,VALID,0.546113,
2006-03-13, 03:14:00,VALID,916.485,VALID,0,VALID,99.587,VALID,0.0339617,VALID,19.5096,VALID,358,VALID,0.580611,
2006-03-13, 03:15:00,VALID,916.476,VALID,0,VALID,99.5145,VALID,0.0509425,VALID,19.519,VALID,359,VALID,0.446948,
2006-03-13, 03:16:00,VALID,916.464,VALID,0,VALID,99.428,VALID,0.0509425,VALID,19.5126,VALID,359,VALID,0.261347,
2006-03-13, 03:17:00,VALID,916.465,VALID,0,VALID,99.4344,VALID,-0.0169808,VALID,19.5096,VALID,359,VALID,0.0568677,
2006-03-13, 03:18:00,VALID,916.476,VALID,0,VALID,99.4001,VALID,0,VALID,19.5031,VALID,359,VALID,0,
2006-03-13, 03:19:00,VALID,916.48,VALID,0,VALID,99.4357,VALID,0.0169808,VALID,19.5064,VALID,359,VALID,0,
2006-03-13, 03:20:00,VALID,916.457,VALID,0,VALID,99.4357,VALID,0,VALID,19.5163,VALID,359,VALID,0,
2006-03-13, 03:21:00,VALID,916.453,VALID,0,VALID,99.3403,VALID,0.0509425,VALID,19.5093,VALID,359,VALID,0,
2006-03-13, 03:22:00,VALID,916.468,VALID,0,VALID,99.3072,VALID,0,VALID,19.4902,VALID,359,VALID,0,
2006-03-13, 03:23:00,VALID,916.463,VALID,0,VALID,99.3441,VALID,-0.0339617,VALID,19.5004,VALID,359,VALID,0,
2006-03-13, 03:24:00,VALID,916.458,VALID,0,VALID,99.4102,VALID,-0.0339617,VALID,19.5138,VALID,359,VALID,0,
2006-03-13, 03:25:00,VALID,916.466,VALID,0,VALID,99.4433,VALID,-0.0509425,VALID,19.5496,VALID,359,VALID,0,
2006-03-13, 03:26:00,VALID,916.467,VALID,0,VALID,99.428,VALID,-0.0339617,VALID,19.569,VALID,359,VALID,0,
2006-03-13, 03:27:00,VALID,916.455,VALID,0,VALID,99.353,VALID,-0.0339617,VALID,19.5692,VALID,359,VALID,0,
2006-03-13, 03:28:00,VALID,916.44,VALID,0,VALID,99.2538,VALID,-0.0339617,VALID,19.5789,VALID,359,VALID,0.0596591,
2006-03-13, 03:29:00,VALID,916.422,VALID,0,VALID,99.2424,VALID,-0.0169808,VALID,19.5747,VALID,1,VALID,0.441592,
2006-03-13, 03:30:00,VALID,916.407,VALID,0,VALID,99.2322,VALID,0,VALID,19.5946,VALID,7,VALID,0.486049,
2006-03-13, 03:31:00,VALID,916.375,VALID,0,VALID,99.2157,VALID,-0.0339617,VALID,19.5881,VALID,11,VALID,0.412427,
2006-03-13, 03:32:00,VALID,916.333,VALID,0,VALID,99.2424,VALID,-0.0339617,VALID,19.6112,VALID,14,VALID,0.462391,
2006-03-13, 03:33:00,VALID,916.276,VALID,0,VALID,99.2424,VALID,0,VALID,19.5941,VALID,32,VALID,0.806055,
2006-03-13, 03:34:00,VALID,916.215,VALID,0,VALID,99.2831,VALID,-0.0169808,VALID,19.5787,VALID,33,VALID,0.817969,